Location: The Saddle
(36.8333°N, 80.3417°W)
Time: 20:13:17
(UTC-05:00)

Courier 1B - Visible Passes

Search period start: 22 January 2022 00:00
Search period end: 01 February 2022 00:00
Orbit: 962 x 1209 km, 28.3° (Epoch: 22 January)

Date Brightness Start Highest point End Pass type
(mag) Time Alt. Az. Time Alt. Az. Time Alt. Az.
22 Jan 9.1 19:39:00 10° SSW 19:45:11 26° SSE 19:46:22 25° SE visible
22 Jan 10.0 21:31:35 10° WSW 21:33:16 17° SW 21:33:16 17° SW visible
23 Jan 9.4 18:45:58 10° SSW 18:51:26 21° SSE 18:56:02 13° ESE visible
23 Jan 9.0 20:37:52 10° SW 20:42:55 33° SSW 20:42:55 33° SSW visible
24 Jan 8.7 19:44:18 10° SW 19:51:10 34° SSE 19:52:34 32° SE visible
24 Jan 9.9 21:37:35 10° WSW 21:39:27 18° WSW 21:39:27 18° WSW visible
25 Jan 9.1 18:50:55 10° SW 18:57:23 29° SSE 19:02:12 16° ESE visible
25 Jan 8.9 20:43:46 10° WSW 20:49:05 37° SSW 20:49:05 37° SSW visible
26 Jan 9.4 17:57:44 10° SSW 18:03:38 24° SSE 18:09:39 10° ESE visible
26 Jan 8.5 19:50:03 10° WSW 19:57:14 41° S 19:58:42 38° SE visible
26 Jan 10.0 21:43:46 10° WSW 21:45:36 18° WSW 21:45:36 18° WSW visible
27 Jan 8.8 18:56:28 10° SW 19:03:24 38° SSE 19:08:19 19° ESE visible
27 Jan 8.9 20:49:52 10° WSW 20:55:13 38° SW 20:55:13 38° SW visible
28 Jan 9.0 18:03:01 10° SW 18:09:36 33° SSE 18:16:24 10° ESE visible
28 Jan 8.4 19:56:04 10° WSW 20:03:22 45° S 20:04:49 41° SSE visible
28 Jan 10.1 21:50:06 10° WSW 21:51:43 17° WSW 21:51:43 17° WSW visible
29 Jan 8.6 19:02:22 10° WSW 19:09:30 43° S 19:14:26 20° ESE visible
29 Jan 9.0 20:56:08 10° WSW 21:01:20 36° SW 21:01:20 36° SW visible
30 Jan 8.8 18:08:46 10° SW 18:15:40 40° S 18:22:50 10° ESE visible
30 Jan 8.5 20:02:17 10° WSW 20:09:30 44° S 20:10:58 41° SSE visible
30 Jan 10.2 21:56:38 10° WSW 21:57:52 14° WSW 21:57:52 14° WSW visible
31 Jan 8.6 19:08:30 10° WSW 19:15:38 45° S 19:20:38 21° ESE visible
31 Jan 9.2 21:02:34 10° WSW 21:07:31 31° SW 21:07:31 31° SW visible
